Location: Brodeslavy
(49.9527°N, 13.5567°E)
Time: 04:07:14
(UTC+00:00)

Cosmos 1378 Rocket - Pass Details

Date: 17 June 2025
Orbit: 594 x 621 km, 82.5° (Epoch: 12 July)

Event Time Altitude Azimuth Distance (km) Brightness Sun altitude
Exits shadow 23:44:47 29° 173° (S) 1,138 4.4 -16.2°
Maximum altitude 23:46:56 70° 97° (E) 661 3.6 -16.1°
Drops below altitude 10° 23:51:18 10° 14° (NNE) 1,984 7.5 -16.0°
Sets 23:53:32 0° 12° (NNE) 2,889 8.9 -15.9°
